Showing default

NOAA 5, 9057

Orbit data source: Space-Track

NOAA 5, 9057 is a payload satellite owned by NOAA (US) in SSO that was launched on Thu, 29 Jul 1976 UTC via a DELTA 2310 launch vehicle from the Air Force Western Test Range (AFWTR). Payload-class satellites include a variety of spacecraft equipped with specific instruments for various scientific and technological missions. These include communications satellites like Starlink; space stations such as the ISS; scientific satellites like the Hubble; Earth observation satellites from companies like Planet Labs, Umbra, and HawkEye 360; GPS; miniature CubeSats for education and research; and military/defense satellites.

Loading next visibility...
Identifier
9057, 1976-077A
Orbit
SSO
Country
Flag of USUS
Related business
Manufacturer
RCA/East Windsor
Mission
Non-operational spacecraft
Bus & Motor
TIROS M, Unknown motor
Mass
340 kg wet, 340 kg dry
Launch date (UTC)
1976-07-29 (49 years ago)
Launch vehicle
DELTA 2310
Launch site
Air Force Western Test Range (AFWTR)
Object type
Payload
Rocket body
Debris
Shape & HBR
Unknown
Radar Cross Section
Large (>1 m²)

Expand to show TLE details & history
Last TLE update: 16 hours ago

TLE from 16 hours ago
0 NOAA 5
1  9057U 76077A   25288.92272439 -.00000010  00000-0  27976-3 0  9997
2  9057 102.2757 268.8121 0010126  65.7679 322.6172 12.37822909224256
Epoch: 2025-10-15T22:08Z
TLE epoch observation values (Epoch: 2025-10-15T22:08:43.387Z)
Latitude
27.6511°
Longitude
-94.57242°
Altitude
1,512.56 km
Speed
7.114 km/s
True Right ascension
17h 29m 11s
True Declination
27° 31' 25"
Sunlit
Object was in daylight at epoch
Visualization orbit readout
Latitude
Unknown
Longitude
Unknown
Altitude
Unknown
Speed
Unknown
Apparent Right ascension
Unknown
Apparent Declination
Unknown
Sunlit
N/A
Visualization observer readout
Local Sidereal Time
09:12:08
Azimuth
Unknown
Elevation
Unknown
Doppler factor
Unknown
Orbital elements
Apogee altitude
1,521.431 km
Perigee altitude
1,505.449 km
Semi-major axis
7,891.577 km
Eccentricity
0.00101
Inclination
102.2757°
RAAN
268.8121°
Arg. of periapsis
65.7679°
True anomaly
322.54668°
Mean anomaly
322.6172°
Eccentric anomaly
322.58195°
Mean motion
3.09598 °/min
Orbital period
116.28 mins
BSTAR
0.00027976
Loading maneuver chart data...
Computing Atmospheric mass density...
Loading historical data...
Loading historical data...
Loading historical data...
Loading historical data...
Loading historical data...
Loading historical data...
Loading historical data...

Documentation

Showing up to 5 results
|